GW0207 Weather Reports


Display with metric or nautical units.
time (UTC)temp
F
wind
direction
speed
MPH
gust
MPH
rain 1hr
in
rain 24hr
in
rain mn
in
humidity
%
barometer
mb
20240521224822 80 4 0.0 0.0 0.00 0.00 0.00 63 1002.6
20240521223820 80 4 0.0 1.0 0.00 0.00 0.00 61 1002.5
20240521221819 80 213 0.0 1.0 0.00 0.00 0.00 61 1002.5
20240521220817 81 210 0.0 3.0 0.00 0.00 0.00 58 1002.6
20240521215817 82 244 0.0 2.0 0.00 0.00 0.00 58 1002.5
20240521214816 82 293 0.0 1.0 0.00 0.00 0.00 59 1002.4
20240521213815 82 225 0.0 2.0 0.00 0.00 0.00 60 1002.4
20240521212814 82 216 0.0 3.0 0.00 0.00 0.00 59 1002.3
20240521211813 83 230 0.0 2.0 0.00 0.00 0.00 59 1002.2
20240521210811 82 98 0.0 2.0 0.00 0.00 0.00 57 1002.2
20240521204810 84 268 0.0 4.0 0.00 0.00 0.00 54 1002.0
20240521203809 84 231 1.0 1.0 0.00 0.00 0.00 56 1002.0
20240521202808 84 243 0.0 2.0 0.00 0.00 0.00 56 1002.1
20240521200806 83 270 0.0 1.0 0.00 0.00 0.00 56 1002.3
20240521194804 84 267 1.0 2.0 0.00 0.00 0.00 58 1002.4
20240521193803 84 251 6.0 6.0 0.00 0.00 0.00 58 1002.6
20240521192802 84 229 1.0 1.0 0.00 0.00 0.00 57 1002.7
20240521191801 82 100 0.0 3.0 0.00 0.00 0.00 59 1002.8
20240521190800 83 221 0.0 3.0 0.00 0.00 0.00 61 1002.8
20240521185759 83 249 0.0 4.0 0.00 0.00 0.00 56 1002.9
20240521184758 83 252 0.0 3.0 0.00 0.00 0.00 57 1003.0
20240521182756 82 146 0.0 3.0 0.00 0.00 0.00 59 1003.1
20240521181755 82 77 1.0 3.0 0.00 0.00 0.00 60 1003.2
20240521180754 83 236 1.0 3.0 0.00 0.00 0.00 62 1003.3
20240521174752 82 18 0.0 2.0 0.00 0.00 0.00 62 1003.5
20240521173751 81 76 0.0 3.0 0.00 0.00 0.00 62 1003.5
20240521172751 81 233 2.0 4.0 0.00 0.00 0.00 60 1003.6
20240521170748 81 223 1.0 6.0 0.00 0.00 0.00 62 1003.8
20240521164746 79 82 0.0 6.0 0.00 0.00 0.00 66 1004.2
20240521163745 80 218 2.0 4.0 0.00 0.00 0.00 64 1004.3
20240521162744 79 266 0.0 5.0 0.00 0.00 0.00 68 1004.3
20240521161743 79 233 1.0 6.0 0.00 0.00 0.00 65 1004.5
20240521155741 78 257 1.0 5.0 0.00 0.00 0.00 64 1004.7
20240521154741 78 95 1.0 5.0 0.00 0.00 0.00 66 1004.7
20240521152739 77 72 2.0 5.0 0.00 0.00 0.00 69 1004.8
20240521150737 77 237 3.0 4.0 0.00 0.00 0.00 69 1004.9
20240521145735 77 84 0.0 2.0 0.00 0.00 0.00 71 1004.9
20240521144735 77 64 0.0 0.0 0.00 0.00 0.00 72 1005.0
20240521142732 76 266 0.0 2.0 0.00 0.00 0.00 73 1005.2
20240521141731 75 237 2.0 3.0 0.00 0.00 0.00 72 1005.1
20240521140730 75 147 2.0 2.0 0.00 0.00 0.00 74 1005.1
20240521135730 75 105 1.0 3.0 0.00 0.00 0.00 70 1004.9
20240521134728 74 3 0.0 1.0 0.00 0.00 0.00 74 1005.1
20240521132726 75 241 0.0 1.0 0.00 0.00 0.00 74 1005.2
20240521131726 74 270 0.0 0.0 0.00 0.00 0.00 78 1005.3
20240521130725 72 242 0.0 1.0 0.00 0.00 0.00 81 1005.4
20240521125723 70 120 0.0 0.0 0.00 0.00 0.00 84 1005.4
20240521124722 68 45 0.0 1.0 0.00 0.00 0.00 87 1005.4
20240521123722 67 314 0.0 0.0 0.00 0.00 0.00 92 1005.3
20240521121720 66 50 0.0 0.0 0.00 0.00 0.00 98 1005.1
20240521120719 63 51 0.0 0.0 0.00 0.00 0.00 98 1005.0
20240521115717 60 54 0.0 0.0 0.00 0.00 0.00 98 1005.0
20240521114717 59 45 0.0 0.0 0.00 0.00 0.00 98 1005.0
20240521113716 58 45 0.0 0.0 0.00 0.00 0.00 98 1005.0
20240521112714 57 48 0.0 0.0 0.00 0.00 0.00 98 1004.8
20240521111713 56 48 0.0 0.0 0.00 0.00 0.00 98 1004.7
20240521110712 56 48 0.0 0.0 0.00 0.00 0.00 98 1004.5
20240521105712 56 48 0.0 0.0 0.00 0.00 0.00 97 1004.4
20240521104710 55 48 0.0 0.0 0.00 0.00 0.00 97 1004.3
20240521103709 55 49 0.0 1.0 0.00 0.00 0.00 97 1004.2
20240521102708 55 48 0.0 0.0 0.00 0.00 0.00 97 1004.1
20240521101707 55 259 0.0 0.0 0.00 0.00 0.00 97 1004.0
20240521095706 55 259 0.0 0.0 0.00 0.00 0.00 97 1003.9
20240521094704 55 259 0.0 0.0 0.00 0.00 0.00 97 1003.8
20240521093703 55 259 0.0 0.0 0.00 0.00 0.00 97 1003.8
20240521092702 56 259 0.0 0.0 0.00 0.00 0.00 97 1003.7
20240521091701 56 259 0.0 0.0 0.00 0.00 0.00 97 1003.7
20240521090700 56 259 0.0 0.0 0.00 0.00 0.00 97 1003.7
20240521084659 56 259 0.0 0.0 0.00 0.00 0.00 97 1003.6
20240521083657 56 259 0.0 0.0 0.00 0.00 0.00 97 1003.7
20240521082656 57 259 0.0 0.0 0.00 0.00 0.00 97 1003.7
20240521081655 57 259 0.0 0.0 0.00 0.00 0.00 97 1003.6
20240521080655 57 259 0.0 0.0 0.00 0.00 0.00 97 1003.6
20240521075653 57 259 0.0 0.0 0.00 0.00 0.00 97 1003.6
20240521074652 57 259 0.0 0.0 0.00 0.00 0.00 97 1003.5
20240521073651 58 259 0.0 0.0 0.00 0.00 0.00 96 1003.5
20240521072650 57 259 0.0 0.0 0.00 0.00 0.00 96 1003.6
20240521071649 58 259 0.0 0.0 0.00 0.00 0.00 96 1003.5
20240521070648 58 259 0.0 0.0 0.00 0.00 0.00 96 1003.5
20240521063646 58 259 0.0 0.0 0.00 0.00 0.00 96 1003.4
20240521062645 59 259 0.0 0.0 0.00 0.00 0.00 96 1003.5
20240521061643 59 259 0.0 0.0 0.00 0.00 0.00 96 1003.6
20240521060643 59 259 0.0 0.0 0.00 0.00 0.00 96 1003.6
20240521055642 59 259 0.0 0.0 0.00 0.00 0.00 96 1003.5
20240521054640 60 259 0.0 0.0 0.00 0.00 0.00 96 1003.7
20240521051637 60 256 0.0 0.0 0.00 0.00 0.00 96 1003.8
20240521050637 60 256 0.0 0.0 0.00 0.00 0.00 96 1003.8
20240521045636 60 256 0.0 0.0 0.00 0.00 0.00 96 1003.9
20240521044634 61 256 0.0 0.0 0.00 0.00 0.00 96 1004.0
20240521043634 61 256 0.0 0.0 0.00 0.00 0.00 95 1004.1
20240521042633 61 256 0.0 0.0 0.00 0.00 0.00 95 1004.1
20240521041631 61 256 0.0 0.0 0.00 0.00 0.00 95 1004.0
20240521040631 61 256 0.0 0.0 0.00 0.00 0.00 95 1004.0
20240521035630 61 256 0.0 0.0 0.00 0.00 0.00 95 1004.0
20240521034628 61 256 0.0 0.0 0.00 0.00 0.00 95 1004.0
20240521032627 62 256 0.0 0.0 0.00 0.00 0.00 94 1004.0
20240521031626 62 256 0.0 0.0 0.00 0.00 0.00 94 1003.9
20240521030625 62 256 0.0 0.0 0.00 0.00 0.00 94 1003.9
20240521025624 62 256 0.0 0.0 0.00 0.00 0.00 93 1003.9
20240521024623 63 256 0.0 0.0 0.00 0.00 0.00 93 1004.0
20240521023622 63 256 0.0 0.0 0.00 0.00 0.00 93 1003.9
20240521020619 64 256 0.0 0.0 0.00 0.00 0.00 91 1003.8
20240521015618 64 256 0.0 0.0 0.00 0.00 0.00 91 1003.6
20240521014617 64 256 0.0 0.0 0.00 0.00 0.00 91 1003.7
20240521013616 65 256 0.0 0.0 0.00 0.00 0.00 90 1003.6
20240521012615 65 256 0.0 0.0 0.00 0.00 0.00 89 1003.4
20240521011614 65 256 0.0 0.0 0.00 0.00 0.00 89 1003.2
20240521010613 66 256 0.0 0.0 0.00 0.00 0.00 88 1003.1
20240521005612 66 256 0.0 0.0 0.00 0.00 0.00 87 1003.2
20240521004611 67 256 0.0 0.0 0.00 0.00 0.00 86 1003.2
20240521003610 68 256 0.0 0.0 0.00 0.00 0.00 85 1003.0
20240521001608 70 256 0.0 0.0 0.00 0.00 0.00 82 1002.8
20240520235606 72 258 0.0 0.0 0.00 0.00 0.00 80 1002.8
20240520234605 72 258 0.0 0.0 0.00 0.00 0.00 78 1002.6
20240520233605 73 258 0.0 1.0 0.00 0.00 0.00 75 1002.6
20240520232603 74 261 0.0 0.0 0.00 0.00 0.00 74 1002.5
20240520231603 74 261 0.0 1.0 0.00 0.00 0.00 72 1002.4
20240520230602 74 256 0.0 0.0 0.00 0.00 0.00 71 1002.3
20240520225600 75 275 0.0 2.0 0.00 0.00 0.00 70 1002.3